This is the latest recevied weather packets stored in our database for station/object K7MT-WX. If no packets are shown the sender has not sent any weather packets the latest 10 day(s).
| Time | Temp. | Humidity | Pressure | Rain* | Wind** | Luminosity | Snow |
|---|---|---|---|---|---|---|---|
| 1778237893 | 5° C | 86% | 1014.7 hPa | 0 mm | - | - | - |
| 1778236993 | 5.56° C | 84% | 1014.6 hPa | 0 mm | - | - | - |
| 1778236093 | 5.56° C | 84% | 1014.7 hPa | 0 mm | - | - | - |
| 1778235193 | 6.11° C | 82% | 1014.6 hPa | 0 mm | - | - | - |
| 1778234293 | 6.67° C | 82% | 1014.5 hPa | 0 mm | - | - | - |
| 1778233393 | 6.67° C | 84% | 1014.5 hPa | 0 mm | - | - | - |
| 1778232493 | 6.67° C | 85% | 1014.5 hPa | 0 mm | - | - | - |
| 1778231593 | 6.67° C | 85% | 1014.5 hPa | 0 mm | - | - | - |
| 1778230693 | 7.22° C | 84% | 1014.7 hPa | 0 mm | - | - | - |
| 1778229793 | 7.78° C | 83% | 1014.7 hPa | 0 mm | - | - | - |
| 1778228893 | 7.78° C | 81% | 1014.6 hPa | 0 mm | - | - | - |
| 1778227993 | 8.33° C | 80% | 1014.6 hPa | 0 mm | - | - | - |
| 1778227093 | 8.89° C | 80% | 1014.5 hPa | 0 mm | - | - | - |
| 1778226193 | 8.89° C | 80% | 1014.6 hPa | 0 mm | - | - | - |
| 1778225293 | 8.89° C | 81% | 1014.6 hPa | 0 mm | - | - | - |
| 1778224393 | 8.33° C | 83% | 1014.6 hPa | 0 mm | - | - | - |
| 1778223493 | 8.89° C | 82% | 1014.7 hPa | 0 mm | - | - | - |
| 1778222593 | 8.89° C | 81% | 1014.7 hPa | 0 mm | - | - | - |
| 1778221693 | 8.89° C | 81% | 1014.8 hPa | 0 mm | - | - | - |
| 1778220793 | 9.44° C | 79% | 1014.3 hPa | 0 mm | - | - | - |
| 1778219893 | 10° C | 77% | 1014 hPa | 0 mm | - | - | - |
| 1778218993 | 10° C | 76% | 1013.9 hPa | 0 mm | - | - | - |
| 1778218093 | 9.44° C | 77% | 1013.9 hPa | 0 mm | - | - | - |
| 1778217193 | 9.44° C | 77% | 1013.9 hPa | 0 mm | - | - | - |
| 1778216293 | 10° C | 76% | 1013.9 hPa | 0 mm | - | - | - |
* Rain latest hour (hover to see other rain measurements)
** Current wind speed in m/s (hover to see current wind gust speed)